Актас

Казахстан     49°46′42″N   72°57′50″E
темп.,
°C
ветер,
м/с
пор.,
м/с
влажн.,
%
обл.,
%
осадки,
мм/ч
давл.,
гПа
погр.,
м
25 февраля, чт
чт2500:00−22юз81791100 0.1 10201053
03:00−22юз91892100 0.1 10211315
06:00−22юз112088100 0.1 10211415
09:00−23юз121887100 0.1 10221158
12:00−23зюз121789100 0.1 10241117
15:00−23зюз121689100 0.1 10271162
18:00−24зюз101591100 0.2 10311089
21:00−24зюз81493100 0.1 1034712
26 февраля, пт
пт2600:00−26зюз71396100 0.1 1037412
03:00−29юз51098100 0.0 1039238
06:00−30юз5997100 0.1 1041234
09:00−30юз499697 0.0 1042209
12:00−25юз589390 0.0 1042399
15:00−23юз579096 0.0 1041488
18:00−25юз349390 0.0 104068
21:00−28ююз34943 0.0 104226
27 февраля, сб
сб2700:00−29ю33952 0.0 104220
03:00−30ю33940 0.0 104119
06:00−30ю239120 0.0 104019
09:00−26ю248893 0.0 1038104
12:00−19ююз468497 0.0 1037316
15:00−15ююз578282 0.0 1035503
18:00−17ююз359049 0.0 103471
21:00−18ю598978 0.0 1034169
28 февраля, вс
вс2800:00−17ю6138089 0.0 1032313
03:00−15ю81577100 0.0 1029431
06:00−12ю91881100 0.0 1025619
09:00−9ююз132291100 0.6 1022795
12:00−6ююз142192100 2.3 1019847
15:00−4ююз132093100 1.8 1018847
18:00−3юз121994100 3.4 1017814
21:00−3юз111895100 1.6 1017778
1 марта, пн
пн100:00−3юз111995100 3.4 1017725
03:00−3юз111995100 1.6 1016803
06:00−4юз101795100 2.9 1016696
09:00−3юз91695100 1.4 1016676
12:00−2юз101596100 3.3 1016743
15:00−2юз101595100 1.4 1016750
18:00−2юз91496100 2.6 1016741
21:00−4юз71492100 0.2 1018485